AirNav   Air Wisconsin Up To $57,000 Bonus
 
 1085 users online  

T92 Mason County Airport
Mason, Texas, USA

GOING TO MASON?


FAA INFORMATION EFFECTIVE 25 MARCH 2021

Location

FAA Identifier: T92
Lat/Long: 30-43-55.8949N 099-11-02.4215W
30-43.931582N 099-11.040358W
30.7321930,-99.1840060
(estimated)
Elevation: 1514 ft. / 461.5 m (surveyed)
Variation: 05E (2015)
From city: 3 miles SE of MASON, TX
Time zone: UTC -5 (UTC -6 during Standard Time)
Zip code: 76856

Airport Operations

Airport use: Open to the public
Activation date: 02/1945
Control tower: no
ARTCC: HOUSTON CENTER
FSS: SAN ANGELO FLIGHT SERVICE STATION
NOTAMs facility: SJT (NOTAM-D service available)
Attendance: UNATNDD
Wind indicator: lighted
Segmented circle: yes
Lights: SS-SR
Beacon: white-green (lighted land airport)
Operates sunset to sunrise.

Airport Communications

CTAF: 122.9
  • APCH/DEP CTL SVC PRVDD BY HOUSTON ARTCC (ZHU) ON FREQS 132.35/317.5 (LOMETA RCAG).

Nearby radio navigation aids

VOR radial/distance  VOR name  Freq  Var
LLOr251/20.8LLANO VORTAC108.2008E
JCTr068/33.7JUNCTION VORTAC116.0008E

Airport Services

Fuel available: 100LL
FUEL AVBL 24 HRS WITH CREDIT CARD. FOR ASSITANCE CALL 325-347-5252.
Parking: tiedowns
Bottled oxygen: NONE
Bulk oxygen: NONE

Runway Information

Runway 18/36

Dimensions: 3716 x 50 ft. / 1133 x 15 m
Surface: asphalt, in poor condition
PAVEMENT CRACKING, VEGETATION GROWING THROUGH.
Runway edge lights: low intensity
Runway edge markings: MARKINGS FADED
RUNWAY 18  RUNWAY 36
Latitude: 30-44.238930N30-43.626155N
Longitude: 099-11.051268W099-11.064108W
Elevation: 1501.8 ft.1497.9 ft.
Traffic pattern: leftleft
Runway heading: 176 magnetic, 181 true356 magnetic, 001 true
Markings: nonprecision, in poor conditionnonprecision, in poor condition
Touchdown point: yes, no lightsyes, no lights
Obstructions: 29 ft. trees, 965 ft. from runway, 26:1 slope to clear12 ft. brush, 200 ft. from runway, 162 ft. right of centerline
+14-23 FT TREES 0-200 FT DSTC 240 FT R OF CNTRLN.

Airport Ownership and Management from official FAA records

Ownership: Publicly-owned
Owner: MASON COUNTY
COURTHOUSE
MASON, TX 76856
Phone 325-347-5556
Manager: JERRY BEARDEN
COUNTY COURTHOUSE
MASON, TX 76856
Phone 325-347-5556
COUNTY JUDGE/ARPT MGR.

Airport Operational Statistics

Aircraft based on the field: 5
Single engine airplanes: 5
    
Aircraft operations: avg 38/week *
60% transient general aviation
40% local general aviation
* for 12-month period ending 14 May 2020

Additional Remarks

HEAVY TRANSIENT TFC NOV-JAN.
DEER ON AND IN VICINITY OF RWY.
FOR CD CTC HOUSTON ARTCC AT 281-230-5622.

Instrument Procedures

NOTE: All procedures below are presented as PDF files. If you need a reader for these files, you should download the free Adobe Reader.

NOT FOR NAVIGATION. Please procure official charts for flight.
FAA instrument procedures published for use from 25 March 2021 at 0901Z to 22 April 2021 at 0900z.

 
IAPs - Instrument Approach Procedures
RNAV (GPS) RWY 18   download (193KB)
RNAV (GPS) RWY 36   download (197KB)
VOR-A   download (168KB)
NOTE: Special Take-Off Minimums/Departure Procedures apply   download (504KB)

Other nearby airports with instrument procedures:

KAQO - Llano Municipal Airport (27 nm E)
KBBD - Curtis Field Airport (28 nm N)
T82 - Gillespie County Airport (33 nm SE)
KJCT - Kimble County Airport (33 nm SW)
KERV - Kerrville Municipal Airport/Louis Schreiner Field (46 nm S)
 
Loc | Ops | Rwys | IFR | FBO | Links
Com | Nav | Svcs | Stats | Notes
Area around T92 (Mason County Airport)
 
Road maps at: MapQuest Bing Google
 
Aerial photo
WARNING: Photo may not be current or correct
Aerial photo of T92 (Mason County Airport)
Do you have a better or more recent aerial photo of Mason County Airport that you would like to share? If so, please send us your photo.

 
Sectional chart

 
Airport distance calculator
Flying to Mason County Airport? Find the distance to fly.

From to T92

Sunrise and sunset
Times for 20-Apr-2021
 Local
(UTC-5)
 Zulu
(UTC)
Morning civil twilight06:4011:40
Sunrise07:0512:05
Sunset20:0701:07
Evening civil twilight20:3201:32

Current date and time
Zulu (UTC)  21-Apr-2021 02:44:35
Local (UTC-5)  20-Apr-2021 21:44:35
 
METAR
KAQO 
27nm E 
210235Z AUTO 02009KT 10SM SCT036 OVC044 12/02 A3020 RMK AO2
KBBD 
28nm N 
210235Z AUTO 02011G17KT 10SM FEW042 FEW047 09/01 A3022 RMK AO2
KT82 
32nm SE 
210235Z AUTO 02011G16KT 10SM CLR 13/02 A3017 RMK AO2 T01260019
KJCT 
33nm SW 
210151Z AUTO 03012G19KT 10SM CLR 13/01 A3017 RMK AO2 SLP198 T01330011
KDZB 
44nm E 
210235Z AUTO 36009KT 10SM CLR 14/04 A3019 RMK AO2 T01380035
KERV 
45nm S 
210235Z AUTO 01010G15KT 10SM CLR 14/03 A3016 RMK AO2 T01410034
KBMQ 
49nm E 
210153Z AUTO 02008KT 10SM CLR 13/03 A3018 RMK AO2 SLP212 T01330033 $
TAF
KBBD 
28nm N 
210129Z 2101/2124 02011G18KT P6SM SKC FM210300 03011KT P6SM SCT035 FM211400 09011KT P6SM BKN060
KJCT 
33nm SW 
202001Z 2020/2118 03016G23KT P6SM SKC FM210500 04011KT P6SM BKN100 FM211100 06010KT P6SM BKN025
NOTAMs
Click for the latest NOTAMs
NOTAMs are issued by the DoD/FAA and will open in a separate window not controlled by AirNav.

 

 
 

FBO, Fuel Providers, and Aircraft Ground Support

  
 Business Name 
 
 Contact 
 
 Services / Description 
 
Fuel Prices
 
Comments
  
Mason County Airport 325-347-8255
no information available

If you are affiliated with Mason County Airport and would like to show here your services, contact info, web link, logo, and more, click here
100LL
SS $4.00 
 Updated 19-Apr-2021
 
   write
SS=Self service
Update Fuel Prices
 

Would you like to see your business listed on this page?

 If your business provides an interesting product or service to pilots, flight crews, aircraft, or users of the Mason County Airport, you should consider listing it here.  To start the listing process, click on the button below
 
Add a business
 

Other Pages about Mason County Airport

Update a link
 
Copyright © AirNav, LLC. All rights reserved. Privacy Policy  Contact